Fort Stockton, TX

5:44 PM CDT on March 28, 2017 (GMT -0500)
Fort Stockton-Pecos County

Weather History for KFST - December, 2011

Change the Weather History Date:

Thursday, December 29, 2011

  Actual Average Record
Temperature  
Mean Temperature 57 °F -  
Max Temperature 73 °F 58 °F 79 °F (2005)
Min Temperature 41 °F 34 °F 26 °F (2003)
Degree Days  
Heating Degree Days 8    
Growing Degree Days 7 (Base 50)    
Moisture  
Dew Point 19 °F    
Average Humidity 26    
Maximum Humidity 42    
Minimum Humidity 13    
Precipitation  
Precipitation 0.00 in - - ()
Sea Level Pressure  
Sea Level Pressure 29.93 in    
Wind  
Wind Speed 12 mph (WSW)    
Max Wind Speed 20 mph    
Max Gust Speed 24 mph    
Visibility 10 miles    
Events      
Averages and records for this station are not official NWS values.
T = Trace of Precipitation, MM = Missing Value Source: NWS Daily Summary

Daily Weather History Graph

Daily Weather History Graph

Search for Another Location

Airport or City:

Trip Planner

Search our weather history database for the weather conditions in past years. The results will help you decide how hot, cold, wet, or windy it might be!

Date:

Astronomy

Dec. 29, 2011 Rise Set
Actual Time 7:48 AM CST 5:58 PM CST
Civil Twilight 7:22 AM CST 6:25 PM CST
Nautical Twilight 6:52 AM CST 6:55 PM CST
Astronomical Twilight 6:22 AM CST 7:24 PM CST
Moon 11:04 AM CST (12/29) 11:14 PM CST (12/29)
Length of Visible Light 11h 03m
Length of Day
10h 09m
Waxing Crescent, 27% of the Moon is Illuminated
Dec 29
Waxing Crescent
Jan 1
First Quarter
Jan 9
Full
Jan 16
Last Quarter
Jan 23
New

Hourly Weather History & Observations

Time (CST) Temp. Windchill Dew Point Humidity Pressure Visibility Wind Dir Wind Speed Gust Speed Precip Events Conditions
12:53 AM 43.0 °F 36.0 °F 21.0 °F 42% 30.04 in 10.0 mi SSW 13.8 mph - N/A   Clear
1:53 AM 43.0 °F 36.4 °F 19.9 °F 40% 30.02 in 10.0 mi SW 12.7 mph - N/A   Clear
2:53 AM 42.1 °F 35.2 °F 19.9 °F 41% 30.02 in 10.0 mi SW 12.7 mph - N/A   Clear
3:53 AM 43.0 °F 36.4 °F 19.0 °F 38% 30.00 in 10.0 mi SW 12.7 mph - N/A   Clear
4:53 AM 41.0 °F 33.9 °F 19.0 °F 41% 29.99 in 10.0 mi SW 12.7 mph - N/A   Clear
5:53 AM 42.1 °F 34.9 °F 18.0 °F 38% 29.99 in 10.0 mi SW 13.8 mph - N/A   Clear
6:53 AM 43.0 °F 36.4 °F 18.0 °F 37% 29.99 in 10.0 mi SSW 12.7 mph - N/A   Clear
7:53 AM 45.0 °F 38.5 °F 17.1 °F 33% 29.99 in 10.0 mi SW 13.8 mph - N/A   Clear
9:53 AM 55.9 °F - 18.0 °F 23% 30.00 in 10.0 mi WSW 9.2 mph - N/A   Clear
10:53 AM 60.1 °F - 19.0 °F 20% 30.00 in 10.0 mi WNW 3.5 mph - N/A   Clear
11:53 AM 64.0 °F - 18.0 °F 17% 29.95 in 10.0 mi NW 4.6 mph - N/A   Clear
12:53 PM 66.9 °F - 18.0 °F 15% 29.91 in 10.0 mi NNW 5.8 mph - N/A   Clear
1:53 PM 71.1 °F - 17.1 °F 13% 29.85 in 10.0 mi NW 12.7 mph - N/A   Clear
2:53 PM 72.0 °F - 19.9 °F 14% 29.83 in 10.0 mi West 12.7 mph - N/A   Clear
3:53 PM 73.9 °F - 21.9 °F 14% 29.83 in 10.0 mi WNW 16.1 mph 20.7 mph N/A   Clear
4:53 PM 71.1 °F - 21.0 °F 15% 29.85 in 10.0 mi WNW 17.3 mph 24.2 mph N/A   Clear
6:53 PM 60.1 °F - 19.9 °F 21% 29.86 in 10.0 mi WSW 6.9 mph - N/A   Clear
7:53 PM 57.0 °F - 21.9 °F 26% 29.86 in 10.0 mi SW 12.7 mph - N/A   Clear
8:53 PM 57.9 °F - 19.9 °F 23% 29.86 in 10.0 mi SW 17.3 mph - N/A   Clear
9:53 PM 59.0 °F - 18.0 °F 20% 29.86 in 10.0 mi SW 19.6 mph - N/A   Clear
10:53 PM 59.0 °F - 18.0 °F 20% 29.87 in 10.0 mi SW 17.3 mph - N/A   Clear
11:53 PM 57.0 °F - 19.0 °F 23% 29.87 in 10.0 mi WSW 11.5 mph - N/A   Clear